SCP
0 0 0 0 0 0 0 0 0 0 0 0 0 1 1 1 1 2 2 1 1 2 2 2 2 1 1 1 1 1 1 1 2 2 1 1 1 1 1 1 1 1 2 2
0 0 0 0 0 0 0 0 0 0 0 0 0 1 1 1 1 1 2 2 1 2 2 2 2 1 1 1 1 1 1 1 1 1 1 1 1 1 1 1 1 1 2 2
0 0 0 0 0 0 0 0 0 0 0 0 1 1 1 1 1 1 2 2 2 1 2 2 2 1 1 1 1 1 1 1 1 1 1 2 2 1 1 1 2 1 1 1
0 0 0 0 0 0 0 0 0 1 1 0 1 1 1 1 1 1 1 2 1 1 1 1 1 1 1 1 1 1 1 1 1 1 1 2 2 1 1 1 1 1 1 1
0 0 0 0 0 0 0 0 0 1 1 1 1 1 2 2 1 1 1 1 1 1 1 1 1 1 1 1 1 1 1 1 1 1 2 2 1 1 1 1 1 1 2 2
0 0 0 0 0 0 0 0 0 0 0 1 1 1 1 2 1 1 1 1 1 1 1 1 1 1 1 1 1 1 1 1 1 2 2 1 1 1 1 1 2 2 2 2
0 0 0 0 0 0 0 0 0 0 0 0 1 1 1 1 1 1 0 0 0 0 1 1 1 2 2 2 2 2 2 2 2 2 1 1 1 1 1 1 2 2 2 2
0 0 0 0 0 0 0 0 0 0 0 0 0 0 0 1 1 0 0 0 0 0 1 1 1 2 2 2 2 2 2 2 2 2 2 2 1 1 1 1 1 2 2 2
0 0 0 0 0 0 0 0 0 0 0 0 0 0 0 0 0 0 0 0 0 0 1 1 1 1 2 2 2 2 2 2 2 2 2 2 2 1 1 1 1 1 1 2
0 0 0 1 0 0 0 0 0 0 0 0 0 0 0 0 0 0 0 0 0 0 1 1 1 1 1 2 2 2 2 2 2 2 2 2 2 2 1 1 1 1 1 1
1 1 1 1 1 0 0 0 0 0 0 0 0 0 0 0 0 0 0 1 1 1 1 1 1 1 1 1 2 1 1 1 1 1 2 2 2 2 1 1 0 0 1 1
1 1 1 1 0 0 0 0 0 0 0 0 0 0 0 0 0 0 0 1 1 1 1 1 1 1 1 1 1 1 1 1 1 1 1 1 1 1 1 1 0 0 0 0
0 1 1 0 0 0 0 0 0 0 0 0 0 0 0 0 0 0 0 0 1 1 1 1 1 1 1 1 1 1 1 1 1 1 1 1 1 1 1 0 0 0 0 0
0 0 0 0 0 0 0 0 0 0 0 0 0 0 1 0 0 0 0 0 0 0 1 1 1 1 1 1 1 1 1 1 1 1 1 1 1 1 1 1 0 0 0 0
0 0 0 0 0 0 0 0 0 0 0 0 0 1 1 1 0 0 0 0 0 0 1 1 1 1 1 1 1 1 1 1 1 1 1 1 1 1 1 1 1 1 1 1
0 0 0 0 0 0 0 0 0 0 0 0 1 1 1 1 1 0 0 0 0 1 1 1 1 0 0 0 0 0 1 0 0 1 1 1 1 1 1 1 1 1 1 1
0 0 0 0 0 0 0 0 0 0 0 0 0 1 1 1 1 0 0 0 0 1 1 1 0 0 0 0 0 0 0 0 0 0 1 1 1 1 1 1 1 1 1 1
0 0 0 0 0 0 0 0 0 0 0 0 0 1 1 1 1 1 0 0 1 1 1 0 0 0 0 0 0 0 0 0 0 0 0 1 1 1 1 1 1 1 1 1
0 0 0 0 0 0 0 0 0 0 0 0 0 0 1 1 1 1 1 1 1 1 1 0 0 0 0 0 0 0 0 0 0 0 0 0 0 0 0 0 0 0 0 0
1 0 0 0 0 0 0 0 0 0 0 0 0 1 1 1 1 1 1 1 1 1 1 0 0 0 0 0 0 0 0 0 0 0 0 0 0 0 0 0 0 0 0 0
1 1 1 0 0 0 0 0 0 0 0 0 0 1 1 1 1 1 1 1 1 1 0 0 0 0 0 0 0 0 0 0 0 0 0 0 0 0 0 0 0 0 0 1
1 1 1 1 0 0 0 0 0 0 0 0 0 1 1 1 1 1 1 1 0 0 0 0 0 0 0 0 0 0 0 0 0 0 0 0 0 0 0 0 0 0 1 1
0 1 2 1 1 0 0 0 0 0 0 0 0 1 1 1 1 1 1 0 0 0 0 0 0 0 0 0 0 0 0 0 0 0 0 0 0 0 0 0 0 0 1 1
0 1 2 2 1 1 0 0 0 0 0 0 0 0 1 1 0 0 0 0 0 0 0 0 0 0 0 0 0 0 0 0 0 0 0 0 0 0 0 0 0 0 0 0
0 0 2 3 2 1 1 1 0 0 0 0 0 0 0 0 0 0 0 0 0 0 0 0 0 0 0 0 0 0 0 0 0 0 0 0 0 0 0 0 0 0 0 0
0 0 2 3 3 1 0 0 0 0 0 0 0 0 0 0 0 0 0 0 0 0 0 0 0 0 0 0 0 0 0 0 0 0 0 0 0 0 0 0 0 0 0 0
0 0 2 3 2 1 0 0 0 0 0 0 0 0 0 0 0 0 0 0 0 0 0 0 0 0 0 0 0 0 0 0 0 0 0 0 0 0 0 0 0 0 0 0
Wind_Speed
13 14 14 12 12 11 10 10 10 11 10 8 8 9 8 7 7 7 8 8 8 6 5 5 5 4 4 5 5 4 3 3 2 2 2 2 2 2 2 2 3 2 2 2
14 13 12 11 12 10 9 9 10 10 8 8 8 8 9 8 8 8 8 8 8 8 7 6 5 5 4 4 4 4 4 3 3 2 2 2 2 2 3 2 2 2 2 3
12 13 12 7 8 7 8 8 9 9 9 10 9 9 9 9 8 8 8 8 8 8 7 5 5 5 5 4 4 4 4 4 3 2 2 2 3 2 3 2 2 2 2 2
10 10 7 3 8 8 7 7 9 9 10 10 10 8 7 6 7 8 9 8 7 6 6 5 5 5 5 4 4 4 4 3 3 2 3 2 2 3 3 2 2 2 2 2
7 8 6 6 9 10 9 6 9 10 11 14 13 9 6 8 10 9 10 8 6 6 5 5 5 5 5 4 4 4 4 3 3 2 3 2 2 2 2 2 2 2 2 2
8 10 7 7 11 11 8 3 10 11 12 13 13 9 7 10 11 10 9 7 6 6 5 5 4 4 5 4 4 4 4 3 2 2 2 2 2 2 2 2 2 2 2 2
9 9 5 7 11 10 6 7 10 11 11 12 10 8 9 10 10 8 8 8 6 6 5 4 4 4 4 4 4 4 4 2 1 1 2 2 1 2 2 2 2 2 2 2
8 8 4 10 10 8 6 7 9 10 10 11 10 10 9 9 9 8 8 8 7 4 4 4 4 4 4 4 4 4 3 2 2 1 2 2 2 2 2 2 2 1 1 2
5 6 6 7 7 7 7 9 10 10 11 11 11 11 11 9 8 8 7 7 5 4 4 4 3 4 4 3 3 3 3 2 2 2 2 2 2 2 2 2 1 1 1 2
8 8 9 9 10 10 9 9 11 11 11 11 11 11 11 8 7 7 7 6 5 5 5 5 4 4 4 3 3 2 2 2 2 2 2 1 1 1 1 1 1 1 2 2
11 11 11 10 11 11 10 10 11 11 11 10 10 10 9 7 7 7 6 5 5 4 4 5 4 4 4 3 1 2 2 2 2 2 2 1 0 1 0 1 1 1 2 2
10 10 11 12 12 12 12 12 11 11 11 10 9 9 9 7 5 5 6 5 5 4 4 5 5 4 3 2 1 1 2 2 2 2 2 1 1 1 1 1 1 2 2 2
10 12 11 13 12 12 11 12 11 10 10 10 8 7 8 7 6 6 6 5 5 4 4 5 5 4 3 2 1 1 2 2 3 3 2 2 2 2 2 1 2 3 3 3
9 10 12 12 11 12 12 12 10 10 9 8 7 7 7 7 6 6 6 5 4 4 4 4 4 3 3 2 1 2 3 3 3 3 3 2 2 2 2 2 2 2 3 5
10 10 11 12 12 12 11 10 10 9 9 8 7 7 7 7 7 7 5 5 5 5 4 4 4 3 3 2 2 2 3 3 2 3 3 3 2 2 1 1 1 1 1 2
11 10 11 11 12 11 11 10 10 10 9 8 7 7 7 7 7 6 5 5 5 5 4 3 4 3 3 3 2 2 2 3 3 3 3 3 2 2 1 1 0 1 1 0
11 11 11 12 12 12 11 10 10 10 10 9 8 8 7 6 6 5 5 5 4 4 3 3 3 3 3 3 3 3 3 2 3 3 3 3 3 2 1 1 1 1 1 1
9 10 10 11 11 12 12 11 10 10 10 10 9 8 7 6 6 6 5 5 4 3 3 3 2 3 4 3 3 4 3 2 2 3 2 2 3 3 2 2 2 2 1 1
9 11 11 11 11 11 11 11 11 10 10 9 9 8 7 6 6 6 5 5 4 3 3 2 3 4 4 3 4 4 4 3 2 2 2 2 3 2 2 2 2 3 2 1
11 12 13 13 12 11 11 10 10 10 10 9 9 8 7 7 6 6 5 4 3 3 2 2 3 4 4 2 4 4 4 3 3 2 2 2 2 1 1 2 2 2 2 2
13 14 14 13 12 12 11 11 10 10 10 9 9 8 8 7 6 5 5 4 2 2 3 3 4 3 3 3 4 5 4 3 3 2 2 1 1 1 1 2 3 2 2 2
14 14 14 13 12 12 10 10 10 11 10 10 10 9 8 7 6 5 5 3 3 3 4 3 3 2 3 4 4 4 3 3 3 2 2 1 1 1 1 1 2 2 2 2
13 14 14 13 12 12 11 10 11 10 9 9 9 8 7 6 5 5 4 3 3 3 4 3 2 2 3 4 4 4 3 3 2 2 2 2 1 1 0 1 1 2 2 2
13 13 13 13 12 11 11 11 10 8 9 8 8 7 6 5 4 4 4 4 4 4 4 2 3 4 4 5 4 4 3 3 2 2 2 2 1 0 1 1 1 2 2 2
13 13 13 12 11 10 10 10 10 9 9 6 7 6 5 4 4 4 3 3 4 5 4 4 7 7 6 5 4 4 3 2 2 2 1 1 1 1 1 1 1 2 2 2
13 11 10 10 10 9 8 7 7 6 6 6 5 5 4 3 4 3 3 5 6 5 5 4 6 7 6 6 5 4 3 2 2 2 1 0 1 1 1 2 2 2 2 2
12 10 8 9 9 8 8 7 7 7 7 6 6 5 4 4 3 4 4 4 5 5 5 4 5 6 6 5 4 3 3 2 1 1 1 1 1 1 1 2 2 2 2 2
Wind_Direction
298 299 302 306 312 319 317 310 305 313 326 353 4 355 355 356 355 355 353 356 359 360 0 3 357 351 350 350 345 339 342 344 346 332 328 333 332 336 325 323 327 331 329 323
297 298 298 303 308 315 321 323 320 322 335 6 358 349 346 347 349 345 348 352 355 359 359 356 349 340 337 336 332 327 331 331 328 330 336 334 327 339 324 316 321 326 342 347
299 310 304 304 327 330 334 338 333 332 344 346 346 347 348 349 351 348 347 351 352 351 347 345 339 331 319 314 314 317 320 319 332 343 337 335 334 337 325 318 321 333 346 2
297 307 296 341 4 355 344 353 2 356 351 346 343 341 342 351 356 355 348 343 343 340 337 331 325 323 307 299 298 300 304 309 323 329 320 328 332 335 333 326 324 334 333 336
298 302 295 325 4 352 334 337 18 1 351 343 338 332 346 7 2 349 340 335 330 322 317 321 319 319 310 304 301 293 296 300 304 315 316 324 327 324 321 316 321 322 321 325
290 300 305 345 360 350 322 312 18 356 344 338 336 330 334 346 338 334 332 328 321 318 320 317 313 318 310 310 310 300 298 292 289 309 313 314 310 311 308 297 296 305 320 329
290 288 292 5 354 341 330 342 343 339 338 334 333 325 315 319 320 323 322 316 311 312 315 315 313 315 305 300 302 300 298 295 292 297 283 282 291 302 285 275 286 293 301 303
299 291 314 6 352 359 344 325 323 327 326 322 322 320 316 314 318 319 316 314 315 319 325 314 309 307 301 303 305 304 297 294 295 282 279 288 273 271 275 258 260 269 284 303
302 303 325 338 341 339 331 321 322 323 320 318 316 317 318 317 316 318 317 317 315 318 316 313 313 314 305 303 300 304 306 303 295 282 256 257 260 258 277 255 241 281 318 324
296 299 317 322 330 330 331 324 318 315 312 312 312 314 314 317 315 311 310 311 317 315 312 314 318 317 307 303 302 309 313 301 287 275 267 267 270 268 304 334 335 328 328 333
295 306 311 317 326 325 320 312 308 312 314 314 315 315 318 318 316 315 309 308 310 305 301 307 314 311 308 309 322 322 306 294 289 288 282 274 323 348 326 14 311 295 319 328
298 317 313 314 321 321 318 314 314 314 315 317 317 316 318 316 312 312 313 311 309 303 304 307 310 312 313 309 297 298 296 301 297 289 284 267 205 203 325 238 241 257 257 259
303 306 304 308 310 311 308 309 310 309 308 311 315 316 316 316 315 310 305 303 305 298 300 304 305 314 314 313 299 291 286 291 289 287 281 264 254 239 220 208 240 259 248 234
310 311 304 303 307 310 309 308 307 306 307 311 316 319 317 317 314 306 301 304 306 298 298 301 299 311 308 304 289 285 282 288 285 286 284 280 269 263 245 219 210 228 221 219
309 304 301 304 303 306 309 309 310 309 313 313 316 316 314 314 312 307 306 304 303 299 302 306 306 308 300 288 286 289 287 286 291 298 298 301 293 285 272 242 218 234 198 201
305 304 308 308 308 310 311 311 309 306 309 309 309 308 307 305 306 306 309 307 305 299 300 310 307 299 296 283 273 266 254 265 276 279 287 293 296 303 315 344 321 267 246 176
300 306 312 312 312 310 310 310 308 306 307 308 307 303 301 303 304 302 304 301 296 294 299 291 285 285 284 281 275 274 265 239 230 255 273 288 300 303 317 319 310 300 327 121
300 307 310 308 307 307 307 305 304 303 304 307 308 304 299 299 298 292 292 290 282 282 275 275 286 287 287 283 284 285 282 270 254 258 266 287 299 299 307 314 312 317 323 179
308 310 311 310 307 305 306 307 307 306 305 304 303 299 293 290 288 286 286 279 271 269 271 273 271 264 270 262 271 267 271 271 266 267 276 275 276 299 328 336 334 338 348 4
318 316 312 309 305 305 304 306 305 305 303 299 295 294 292 286 280 277 275 270 263 263 257 268 261 262 263 255 264 271 273 277 278 271 268 280 297 316 332 334 334 347 356 12
320 315 311 309 308 307 306 307 303 299 297 294 292 289 288 285 273 268 263 262 260 259 263 248 249 251 251 264 247 261 266 272 277 282 290 299 313 318 343 342 349 0 6 16
315 313 311 308 306 303 303 302 298 294 292 291 288 284 284 282 271 261 257 256 259 251 251 244 239 251 273 268 249 255 262 269 272 281 291 293 295 299 342 355 350 359 23 33
310 310 309 306 301 299 297 295 293 291 288 287 284 280 279 276 265 257 254 242 246 240 252 263 250 230 250 252 255 253 256 262 267 274 283 287 295 311 19 16 5 9 25 25
305 304 303 303 299 296 293 292 292 289 284 280 274 273 272 267 258 246 240 228 222 220 244 233 210 212 232 242 251 252 244 245 261 274 280 287 308 34 72 50 24 22 27 35
301 301 300 300 296 290 287 287 285 279 280 274 272 273 271 265 255 242 227 215 203 209 228 214 207 215 231 242 243 244 245 246 255 280 294 323 14 37 50 56 45 49 52 52
295 292 291 288 287 284 282 284 283 282 282 276 271 266 268 268 258 240 219 214 212 219 231 219 208 210 223 232 235 233 228 200 209 228 244 77 67 54 54 53 47 43 49 55
285 286 282 278 279 279 277 274 274 275 274 269 270 269 267 269 259 242 231 219 208 212 223 228 215 207 212 216 218 215 210 214 208 196 181 133 88 65 69 72 54 44 40 49